Location: ??????
(40.9417°N, 22.8941°E)
Time: 15:26:24
(UTC+00:00)

Daily predictions for brighter satellites

Satellite Brightness Start Highest point End
(mag) Time Altitude Azimuth Time Altitude Azimuth Time Altitude Azimuth
PSLV R/B 3.7 18:26:30 10° SSE 18:29:56 55° ENE 18:33:26 10° N
Cosmos 1607 4.1 18:26:05 10° NW 18:32:29 82° WSW 18:38:42 10° SSE
Cosmos 1892 2.5 18:29:23 10° S 18:32:54 88° W 18:36:28 10° N
Feng Yun 1-1 Rocket 4.4 18:28:10 10° S 18:33:40 79° WSW 18:39:06 10° NNW
USA 215 3.6 18:29:29 10° ESE 18:35:54 61° NE 18:42:21 10° NW
SPOT 5 3.7 18:31:46 10° SE 18:36:13 37° ENE 18:40:53 10° N
NOSS 2-3 (D) 4.1 18:34:47 10° S 18:37:54 26° ESE 18:41:04 10° ENE
Cosmos 2112 Rocket 4.0 18:35:46 10° NNW 18:41:00 75° ENE 18:46:15 10° SSE
Cosmos 921 Rocket 4.5 18:38:28 10° NNE 18:41:44 22° ENE 18:45:02 10° ESE
ISS -1.1 18:39:25 10° WNW 18:42:08 23° NNW 18:44:50 10° NNE
Timation 2 Rocket 4.5 18:39:03 10° S 18:44:50 37° ESE 18:50:26 10° NE
Cosmos 1328 3.7 18:42:35 10° S 18:46:22 62° E 18:50:08 10° NNE
Cosmos 724 4.4 18:40:47 10° NNW 18:46:38 81° WSW 18:52:33 10° SSE
OAO 2 Rocket 4.2 18:43:34 10° WSW 18:48:17 36° SSW 18:52:42 12° SE
USA 186 3.9 18:45:46 10° SSW 18:48:23 25° W 18:50:58 10° NW
Cosmos 1825 2.6 18:45:14 10° SSW 18:48:33 56° W 18:51:54 10° N
ARGOS Delta rocket 3.8 18:44:10 10° SSE 18:48:46 78° ENE 18:53:40 10° N
Okean-O 2.7 18:45:54 10° SSE 18:50:14 63° ENE 18:54:36 10° N
CZ-4C R/B 3.3 18:57:03 10° NNE 19:00:37 47° E 19:04:00 10° S
NOSS 2-2 (E) 2.8 18:57:46 10° SSW 19:01:12 58° ESE 19:04:17 10° NE
NOSS 2-2 (C) 2.9 18:58:15 10° SW 19:01:38 79° NW 19:04:45 10° NNE
Cosmos 2084 3.2 19:00:17 10° SSW 19:04:27 67° ESE 19:08:27 10° NE
NOSS 2-3 (E) 3.0 19:03:16 10° SSW 19:06:52 64° ESE 19:10:39 10° NE
USA 276 4.4 19:07:08 10° NNW 19:09:17 18° NNE 19:11:29 10° ENE
Nadezhda 3 Rocket 4.3 19:04:41 10° N 19:10:39 50° ENE 19:15:33 15° SSE
Cosmos 2181 Rocket 4.2 19:05:15 10° N 19:11:23 75° W 19:17:35 10° S
Cosmos 1844 4.2 19:07:02 10° SSW 19:12:46 67° WNW 19:18:33 10° NNE
Hubble Space Telescope 2.6 19:14:25 10° SSW 19:16:25 13° S 19:16:52 13° S
Terra 2.2 19:13:56 17° SE 19:17:14 46° ENE 19:21:45 10° N
Meteor 1-21 Rocket 4.1 19:13:50 10° S 19:19:23 83° E 19:24:56 10° N
H-II Stage 2 4.0 19:19:12 10° SSW 19:21:55 19° SSE 19:23:25 18° SE
NOSS 2-3 (C) 3.2 19:20:59 10° SW 19:24:34 80° NW 19:28:26 10° NNE
GP-B 4.0 19:27:44 10° N 19:32:00 49° W 19:36:14 10° SSW
Cosmos 1437 Rocket 4.2 19:32:35 19° E 19:32:36 19° E 19:35:12 10° NE
Meteor 2-1 Rocket 4.5 19:27:53 10° N 19:33:22 51° ENE 19:36:35 23° SE
Cosmos 1833 Rocket 4.0 19:28:39 10° N 19:33:26 28° NE 19:36:42 17° ESE
ATLAS CENTAUR R/B 1.8 19:30:04 10° NNW 19:33:57 47° NE 19:35:58 26° ESE
Okean 1 Rocket 4.2 19:30:31 10° NNW 19:34:43 42° W 19:38:55 10° SSW
Cosmos 44 3.7 19:33:44 10° S 19:38:47 46° ESE 19:43:41 10° NE
NOSS 2-2 (D) 3.9 19:35:44 10° SW 19:39:02 46° NW 19:42:03 10° NNE
Cosmos 1975 Rocket 3.0 19:35:44 16° S 19:39:19 80° E 19:43:48 10° N
Cosmos 1455 Rocket 3.0 19:35:40 10° N 19:40:04 89° E 19:42:42 24° S
Cosmos 1025 Rocket 4.0 19:36:01 10° SSW 19:40:05 45° WNW 19:44:11 10° N
Lacrosse 5 3.9 19:36:08 10° W 19:40:35 30° NNW 19:45:03 10° NNE
ERS-1 Rocket 3.0 19:38:08 20° SSE 19:41:39 85° WSW 19:46:41 10° NNW
Spot 2 Rocket 3.5 19:39:22 24° SSE 19:42:29 72° ENE 19:47:34 10° N
ATLAS 5 CENTAUR R/B 4.5 19:43:43 10° WNW 19:45:35 14° NW 19:47:34 10° N
Cosmos 2278 Rocket 3.3 19:49:27 23° ESE 19:50:04 24° ESE 19:54:28 10° NE
Cosmos 2341 Rocket 4.2 19:48:47 24° SSE 19:52:21 52° E 19:58:27 10° NNE
Cosmos 1339 Rocket 4.4 19:49:05 10° N 19:55:18 72° E 19:58:45 27° SSE
Cosmos 2298 Rocket 4.2 19:53:06 27° SSE 19:55:44 50° ESE 20:00:53 10° NNE
Landsat 5 4.0 19:52:57 10° NNE 19:57:07 41° E 19:58:00 37° SE
Meteor 1-11 4.2 19:53:04 14° S 19:58:08 86° W 20:03:52 10° N
Okean O Rocket 4.3 19:57:28 10° WSW 19:59:09 12° W 20:00:52 10° WNW
Cosmos 1606 2.3 19:59:58 10° N 20:03:32 81° E 20:04:09 57° SSE
Ariane Rocket 3.1 20:07:17 29° S 20:09:51 71° WSW 20:14:55 10° NNW
Cosmos 1536 Rocket 3.9 20:10:07 41° ESE 20:10:35 43° E 20:14:41 10° NNE
MOS 1 Rocket 4.1 20:11:41 23° SSW 20:14:16 45° W 20:18:36 10° NNW
Cosmos 1869 3.2 20:10:37 10° N 20:14:26 78° W 20:15:15 53° S
ATLAS 3B R/B 3.8 20:14:16 25° ESE 20:14:38 25° ESE 20:20:26 10° NE
USA 215 4.0 20:15:52 25° S 20:19:02 40° SW 20:25:09 10° WNW
ISS -0.6 20:18:09 10° NNW 20:19:48 13° N 20:21:27 10° NNE
Cosmos 921 Rocket 4.4 20:16:16 10° NW 20:19:54 29° W 20:21:45 21° SW
ARIANE 5 R/B 4.1 20:21:27 23° E 20:22:07 24° ENE 20:25:41 10° NNE
Cosmos 2098 4.5 20:25:19 73° SSW 20:25:39 87° W 20:28:56 10° N
Cosmos 1943 Rocket 3.1 20:26:53 30° E 20:26:53 30° E 20:31:33 10° NE
Cosmos 1821 Rocket 4.5 20:25:12 36° SE 20:26:56 44° E 20:32:54 10° NNE
Cosmos 2228 2.8 20:26:50 10° N 20:31:02 87° ENE 20:31:33 68° SSE
Cosmos 2150 Rocket 4.3 20:34:01 23° SSW 20:37:24 70° WNW 20:42:51 10° NNE
NOSS 3-1 (C) 2.8 20:37:12 39° SSW 20:39:04 83° ESE 20:44:39 10° NE
USA 276 3.5 20:40:52 10° NW 20:42:48 36° NW 20:42:48 36° NW
SeaSat 1 4.2 20:47:14 18° E 20:49:00 22° NE 20:52:44 10° N
Cosmos 2366 rocket 4.1 20:45:59 31° SSW 20:49:00 70° W 20:55:09 10° N
Terra 4.0 20:52:39 13° SW 20:55:02 18° W 20:58:14 10° NW
BREEZE-M DEB (TANK) 4.3 20:54:12 10° WNW 20:58:13 80° SSW 21:03:15 32° SE
Cosmos 1812 4.2 21:00:21 10° NNE 21:02:28 26° NE 21:02:28 26° NE
Cosmos 1892 Rocket 4.1 21:08:00 47° ENE 21:08:00 47° ENE 21:11:43 10° NNE
Meteor 2-13 Rocket 4.4 21:04:20 10° N 21:10:32 88° W 21:11:57 57° S
ATLAS CENTAUR R/B 3.6 21:08:39 10° WNW 21:10:52 16° WSW 21:10:52 16° WSW
Cosmos 2239 Rocket 4.4 21:10:55 57° SE 21:12:02 69° E 21:18:14 10° NNE
SL-08 R/B 4.4 21:12:45 58° SSE 21:13:48 70° E 21:19:53 10° NNE
NOSS 3-1 (A) 2.8 21:16:36 72° ESE 21:16:36 72° ESE 21:22:00 10° NE
Cosmos 1833 Rocket 3.3 21:12:10 10° NW 21:17:30 44° WSW 21:18:22 41° SW
Cosmos 2123 Rocket 4.4 21:16:02 10° N 21:22:06 48° ENE 21:23:11 43° ESE
Cosmos 1000 Rocket 4.3 21:20:54 10° N 21:27:04 78° E 21:28:02 64° SSE
Cosmos 1606 Rocket 4.0 21:26:10 10° NNW 21:29:59 56° WNW 21:29:59 56° WNW
Cosmos 2082 Rocket 2.2 21:25:26 10° NNW 21:31:02 65° ENE 21:31:39 61° E
Cosmos 1726 Rocket 3.8 21:28:21 10° N 21:32:05 64° NNW 21:32:05 64° NNW
Cosmos 2278 Rocket 3.0 21:31:13 29° WSW 21:33:46 48° WNW 21:39:15 10° NNE
Cosmos 2369 Rocket 3.9 21:37:51 19° E 21:37:51 19° E 21:40:44 10° NE
Cosmos 489 Rocket 4.4 21:39:57 62° ESE 21:40:20 63° ESE 21:46:27 10° NNE
H-2A R/B 3.2 21:44:33 46° N 21:44:33 46° N 21:47:21 10° N
USA 229 DEB 4.2 21:44:54 37° E 21:44:54 37° E 21:50:03 10° NE
USA 229 4.2 21:45:03 36° E 21:45:03 36° E 21:50:10 10° NE
ULPM Upper Stage 3.8 21:40:37 10° NNW 21:44:39 39° NE 21:44:39 39° NE
CZ-4C R/B 3.8 21:48:27 10° NNW 21:55:21 45° NE 22:00:34 22° ESE
Cosmos 1934 Rocket 3.9 21:54:43 69° S 21:55:33 88° W 22:01:50 10° N
ISS -1.2 21:54:56 10° NNW 21:57:18 20° NNE 21:57:18 20° NNE
Cosmos 2058 Rocket 3.6 21:53:57 10° N 21:57:25 56° NNW 21:57:25 56° NNW
ARIANE 5 R/B 4.0 21:58:54 30° W 21:58:54 30° W 22:02:19 10° NNW
COSMOS 2406 3.0 21:54:55 10° NNW 22:00:38 89° ENE 22:00:48 85° SE
Cosmos 1782 4.3 21:57:21 10° N 21:59:39 30° NNE 21:59:39 30° NNE
ATLAS 3B R/B 3.0 22:01:26 35° SW 22:04:41 68° NW 22:12:17 10° NNE
Cosmos 1943 Rocket 3.3 22:08:20 30° W 22:10:18 39° WNW 22:15:34 10° N
USA 281 3.4 22:09:48 48° ESE 22:11:27 63° ENE 22:17:56 10° NNW
Meteor 2-19 Rocket 4.3 22:09:04 10° N 22:15:15 86° W 22:15:45 76° SSW
USA 81 4.1 22:11:22 10° N 22:16:27 70° ENE 22:16:27 70° ENE
ALOS 2 3.4 22:19:19 45° NW 22:19:19 45° NW 22:22:39 10° NNW
Cosmos 2058 4.4 22:19:03 31° NW 22:19:03 31° NW 22:22:05 10° N
Meteor 2-3 Rocket 3.6 22:21:26 78° ESE 22:21:29 78° E 22:27:11 10° NNE
Cosmos 1812 Rocket 4.5 22:19:57 10° N 22:23:31 43° NE 22:23:31 43° NE
Cosmos 1602 Rocket 4.4 22:25:39 46° NE 22:25:39 46° NE 22:28:51 10° NNE
Cosmos 1535 Rocket 4.4 22:24:51 68° SW 22:25:27 74° W 22:31:36 10° N
H-2A R/B 3.3 22:22:04 10° NNE 22:24:34 33° NE 22:24:34 33° NE
SeaSat 1 3.0 22:26:56 48° WNW 22:26:56 48° WNW 22:30:55 10° NW
Cosmos 407 Rocket 3.5 22:23:44 10° NNW 22:28:37 78° NNE 22:28:37 78° NNE
BREEZE-M DEB (TANK) 3.9 22:12:19 10° SW 22:31:18 78° SSE 22:35:46 10° ENE
Gblst 52 Del rocket 4.2 22:32:26 65° E 22:32:26 65° E 22:37:10 10° ENE
Cosmos 1271 Rocket 4.4 22:33:32 31° NNW 22:33:32 31° NNW 22:35:45 10° N
Okean 1-7 Rocket 4.3 22:33:58 51° NNE 22:33:58 51° NNE 22:37:18 10° N
Cosmos 1605 Rocket 3.8 22:32:33 71° SW 22:33:04 77° W 22:39:13 10° N
USA 234 4.0 22:28:59 10° ENE 22:34:08 35° ESE 22:34:08 35° ESE
Cosmos 1932 4.5 22:31:32 10° NW 22:37:29 60° WSW 22:37:29 60° WSW
Lacrosse 5 rocket 3.5 22:44:25 19° ENE 22:44:25 19° ENE 22:45:39 10° NE
Cosmos 1758 Rocket 4.4 22:43:55 47° NNW 22:43:55 47° NNW 22:47:10 10° N
Cosmos 1241 Rocket 4.4 22:37:17 10° NW 22:43:44 74° WSW 22:44:08 72° SSW
Meteor 1-26 Rocket 4.2 22:38:29 10° N 22:44:01 70° E 22:44:14 69° E
Cosmos 2297 3.6 22:46:45 76° W 22:46:59 78° WNW 22:52:44 10° NNE
Timation 1 Rocket 4.2 22:44:14 10° NNW 22:50:16 86° ENE 22:50:42 78° SE
Cosmos 2251 Rocket 3.6 22:46:08 10° NNW 22:51:01 67° WNW 22:51:01 67° WNW
Cosmos 1624 Rocket 4.0 22:57:43 79° NE 22:57:43 79° NE 23:02:39 10° NNE
Cosmos 1153 Rocket 4.3 22:57:06 74° SSW 22:57:42 83° W 23:03:59 10° N
SL-8 R/B 4.1 23:00:52 61° NNE 23:00:52 61° NNE 23:04:58 10° ENE
Cosmos 1447 Rocket 4.4 22:54:53 10° NNW 23:01:07 73° W 23:01:37 69° SW
Cosmos 1954 Rocket 4.1 22:57:44 10° NNW 23:02:53 66° ENE 23:02:58 65° ENE
Cosmos 1420 Rocket 4.1 23:04:44 65° WNW 23:04:46 65° WNW 23:10:03 10° NNE
Meteor 2-21 4.3 22:59:37 10° N 23:05:47 83° E 23:06:31 70° SSE
CZ-2D R/B 4.4 23:04:13 10° ENE 23:06:00 12° E 23:07:07 11° ESE
Cosmos 2173 Rocket 3.9 23:05:22 63° SE 23:06:00 68° E 23:12:03 10° NNE
Cosmos 2056 Rocket 3.5 23:11:00 71° WNW 23:11:00 71° WNW 23:16:16 10° NNE
CENTAUR R/B 4.2 23:03:16 10° NNW 23:11:07 44° NE 23:19:51 10° ESE
Cosmos 1656 Rocket 4.3 23:13:38 41° W 23:14:25 43° WNW 23:19:41 10° N
Cosmos 2082 Rocket 4.1 23:11:03 10° WNW 23:13:28 16° W 23:13:28 16° W
Lacrosse 4 Rocket 2.3 23:20:40 46° N 23:20:40 46° N 23:23:41 10° NNE
Cosmos 2369 Rocket 2.5 23:19:37 51° W 23:20:14 54° WNW 23:25:45 10° NNE
Iridium 4 Rocket 4.1 23:25:59 10° NNW 23:31:34 52° W 23:31:55 52° W
BREEZE M DEB (TANK) 4.3 23:15:46 10° WNW 23:31:51 88° SW 23:33:53 41° SE
Cosmos 2263 4.5 23:33:41 53° W 23:34:27 57° WNW 23:40:07 10° NNE
USA 229 DEB 4.5 23:32:18 28° W 23:34:56 41° NW 23:41:16 10° NNE
USA 229 4.4 23:32:27 28° W 23:35:03 41° NW 23:41:24 10° NNE
Cosmos 676 Rocket 3.9 23:31:47 10° NNW 23:36:47 75° W 23:36:47 75° W
Cosmos 1331 Rocket 4.3 23:39:13 54° ESE 23:39:24 54° ESE 23:44:27 10° NNE
CZ-4C R/B 3.3 23:36:45 10° NW 23:44:05 51° WSW 23:45:34 46° SSW
COSMOS 2455 2.9 23:38:35 10° NNW 23:44:39 73° ENE 23:46:54 40° SE
Cosmos 1340 Rocket 3.5 23:41:49 10° N 23:44:46 51° N 23:44:46 51° N
Meteor 2-21 Rocket 4.4 23:40:44 10° NNW 23:46:48 66° W 23:47:39 59° SW
Resurs 1-4 Rocket 3.3 23:42:10 10° NE 23:46:52 31° E 23:48:07 28° ESE
Cosmos 2221 3.6 23:43:56 10° NNW 23:46:52 34° NW 23:46:52 34° NW
ADEOS II 3.8 23:48:45 10° NE 23:52:46 22° E 23:54:39 18° ESE
